CW7014 Weather Reports


time (UTC)temp
C
wind
direction
speed
KPH
gust
KPH
rain 1hr
cm
rain 24hr
cm
rain mn
cm
humidity
%
barometer
mb
20260504205002 23 99 1.6 6.4 0.00 0.00 0.00 72 1006.0
20260504204503 23 145 3.2 11.3 0.00 0.00 0.00 73 1006.1
20260504204001 23 181 3.2 11.3 0.00 0.00 0.00 75 1006.2
20260504203002 22 118 3.2 11.3 0.00 0.00 0.00 80 1006.3
20260504201503 20 249 3.2 12.9 0.00 0.00 0.00 89 1006.2
20260504201000 19 117 3.2 12.9 0.00 0.00 0.00 91 1006.3
20260504200501 18 152 3.2 20.9 0.00 0.00 0.00 90 1006.3
20260504200003 18 189 4.8 20.9 0.00 0.00 0.00 90 1006.4
20260504195501 18 219 4.8 19.3 0.00 0.00 0.00 90 1005.8
20260504195001 18 198 1.6 16.1 0.00 0.00 0.00 90 1005.5
20260504194502 18 5 0.0 0.0 0.00 0.00 0.00 93 1006.2
20260504194001 18 288 0.0 0.0 0.00 0.00 0.00 93 1006.9
20260504193501 18 288 0.0 0.0 0.00 0.00 0.00 93 1006.9
20260504193001 18 334 0.0 3.2 0.00 0.00 0.00 92 1006.8
20260504192003 19 334 0.0 0.0 0.00 0.00 0.00 89 1007.1
20260504191501 20 336 0.0 0.0 0.00 0.00 0.00 87 1007.2
20260504191000 20 335 0.0 0.0 0.00 0.00 0.00 84 1007.6
20260504190501 20 334 0.0 0.0 0.00 0.00 0.00 82 1007.6
20260504190004 21 335 0.0 3.2 0.00 0.00 0.00 75 1007.8
20260504185501 21 335 0.0 9.7 0.00 0.00 0.00 72 1007.5
20260504184501 21 338 0.0 8.0 0.00 0.00 0.00 70 1007.6
20260504184001 22 115 0.0 0.0 0.00 0.00 0.00 72 1007.7
20260504183002 22 114 0.0 3.2 0.00 0.00 0.00 67 1007.6
20260504182501 22 115 0.0 3.2 0.00 0.00 0.00 63 1007.6
20260504182001 23 195 0.0 6.4 0.00 0.00 0.00 65 1007.9
20260504181501 23 195 1.6 6.4 0.00 0.00 0.00 63 1007.7
20260504181000 23 182 1.6 14.5 0.00 0.00 0.00 62 1007.6
20260504180501 24 191 1.6 14.5 0.00 0.00 0.00 61 1007.6
20260504180005 24 157 1.6 8.0 0.00 0.00 0.00 67 1007.3
20260504175502 23 43 0.0 8.0 0.00 0.00 0.00 66 1007.3
20260504175001 22 233 0.0 4.8 0.00 0.00 0.00 68 1007.6
20260504174501 22 248 0.0 4.8 0.00 0.00 0.00 74 1007.7
20260504174001 21 250 0.0 4.8 0.00 0.00 0.00 72 1007.7
20260504173002 20 95 0.0 3.2 0.00 0.00 0.00 76 1007.8
20260504172501 20 167 0.0 8.0 0.00 0.00 0.00 78 1007.9
20260504172001 19 167 0.0 8.0 0.00 0.00 0.00 79 1007.9
20260504171501 18 180 0.0 0.0 0.00 0.00 0.00 83 1008.0
20260504171000 18 180 0.0 0.0 0.00 0.00 0.00 83 1008.3
20260504170502 18 180 0.0 0.0 0.00 0.00 0.00 83 1008.6
20260504151000 21 92 0.0 0.0 0.00 0.00 0.00 65 1010.3
20260504150500 21 91 0.0 4.8 0.00 0.00 0.00 65 1010.4
20260504140501 20 168 0.0 6.4 0.00 0.00 0.00 72 1009.9
20260504130501 15 200 0.0 4.8 0.00 0.00 0.00 90 1010.7
20260504100459 12 209 0.0 0.0 0.00 0.00 0.00 92 1010.7
20260504081959 13 209 0.0 0.0 0.00 0.00 0.00 82 1010.6
20260504081500 14 209 0.0 0.0 0.00 0.00 0.00 81 1010.6
20260504081000 14 209 0.0 0.0 0.00 0.00 0.00 80 1010.6
20260504080500 15 209 0.0 0.0 0.00 0.00 0.00 80 1010.7
20260504050501 18 203 4.8 16.1 0.00 0.00 0.00 64 1010.4
20260504045501 18 223 3.2 11.3 0.00 0.00 0.00 64 1010.5
20260504044502 18 175 3.2 16.1 0.00 0.00 0.00 63 1010.9
20260504044001 18 184 4.8 16.1 0.00 0.00 0.00 63 1011.0
20260504043502 19 167 3.2 14.5 0.00 0.00 0.00 63 1011.2
20260504043002 19 202 3.2 14.5 0.00 0.00 0.00 63 1011.4
20260504042501 19 207 3.2 19.3 0.00 0.00 0.00 62 1011.4
20260504042001 19 200 3.2 19.3 0.00 0.00 0.00 62 1011.5
20260504041503 19 187 4.8 16.1 0.00 0.00 0.00 62 1011.5
20260504040502 19 211 4.8 17.7 0.00 0.00 0.00 61 1011.6
20260504040004 19 192 3.2 19.3 0.00 0.00 0.00 61 1011.6
20260504035502 20 151 3.2 12.9 0.00 0.00 0.00 61 1011.7
20260504035002 20 191 4.8 19.3 0.00 0.00 0.00 60 1011.6
20260504034502 20 132 4.8 19.3 0.00 0.00 0.00 60 1011.9
20260504034001 20 184 4.8 12.9 0.00 0.00 0.00 60 1011.9
20260504033002 19 160 3.2 9.7 0.00 0.00 0.00 60 1012.1
20260504032502 19 184 4.8 16.1 0.00 0.00 0.00 60 1012.0
20260504031502 19 209 3.2 11.3 0.00 0.00 0.00 60 1011.9
20260504031001 19 202 3.2 11.3 0.00 0.00 0.00 60 1012.0
20260504030501 19 183 3.2 9.7 0.00 0.00 0.00 60 1011.9
20260504025002 20 211 1.6 9.7 0.00 0.00 0.00 59 1011.7
20260504024502 20 226 1.6 11.3 0.00 0.00 0.00 59 1011.9
20260504024002 20 189 1.6 8.0 0.00 0.00 0.00 58 1011.9
20260504023501 20 164 1.6 9.7 0.00 0.00 0.00 58 1011.8
20260504022501 20 161 0.0 9.7 0.00 0.00 0.00 58 1011.8
20260504022001 20 160 1.6 9.7 0.00 0.00 0.00 58 1011.8
20260504021502 20 203 1.6 9.7 0.00 0.00 0.00 59 1011.7
20260504020502 19 200 0.0 6.4 0.00 0.00 0.00 58 1011.6
20260504020003 19 200 0.0 6.4 0.00 0.00 0.00 58 1011.6
20260504015001 19 200 1.6 8.0 0.00 0.00 0.00 59 1011.4
20260504014503 19 200 0.0 8.0 0.00 0.00 0.00 59 1011.5
20260504014002 20 205 0.0 8.0 0.00 0.00 0.00 59 1011.4
20260504013501 20 200 0.0 0.0 0.00 0.00 0.00 58 1011.4
20260504012501 20 201 0.0 0.0 0.00 0.00 0.00 57 1011.4
20260504012001 21 200 0.0 0.0 0.00 0.00 0.00 57 1011.4
20260504011502 21 200 0.0 0.0 0.00 0.00 0.00 55 1011.4
20260504011001 21 201 0.0 0.0 0.00 0.00 0.00 54 1011.4
20260504010004 22 201 0.0 8.0 0.00 0.00 0.00 52 1011.3
20260504005503 22 200 0.0 6.4 0.00 0.00 0.00 51 1011.4
20260504005001 22 200 1.6 6.4 0.00 0.00 0.00 51 1011.3
20260504004502 22 200 1.6 4.8 0.00 0.00 0.00 50 1011.2
20260504004001 22 201 1.6 4.8 0.00 0.00 0.00 49 1011.3
20260504003502 22 200 1.6 8.0 0.00 0.00 0.00 49 1011.3
20260504002502 23 204 1.6 9.7 0.00 0.00 0.00 49 1011.2
20260504001502 23 200 1.6 11.3 0.00 0.00 0.00 48 1011.3
20260504001001 23 202 3.2 11.3 0.00 0.00 0.00 47 1011.3
20260504000501 23 180 4.8 12.9 0.00 0.00 0.00 47 1011.3
20260504000003 23 179 3.2 12.9 0.00 0.00 0.00 47 1011.3
20260503235502 23 183 3.2 12.9 0.00 0.00 0.00 46 1011.4
20260503235001 23 173 3.2 12.9 0.00 0.00 0.00 47 1011.4
20260503234502 24 187 4.8 16.1 0.00 0.00 0.00 46 1011.5
20260503234001 24 161 4.8 16.1 0.00 0.00 0.00 46 1011.5
20260503233501 24 176 3.2 16.1 0.00 0.00 0.00 45 1011.5
20260503232001 24 142 4.8 29.0 0.00 0.00 0.00 44 1011.4
20260503231502 24 186 4.8 17.7 0.00 0.00 0.00 44 1011.5
20260503231002 24 200 6.4 17.7 0.00 0.00 0.00 44 1011.6
20260503230503 24 210 4.8 20.9 0.00 0.00 0.00 43 1011.6
20260503230004 24 193 6.4 22.5 0.00 0.00 0.00 43 1011.7
20260503225501 24 154 6.4 22.5 0.00 0.00 0.00 43 1011.7
20260503225001 25 211 4.8 16.1 0.00 0.00 0.00 42 1011.7
20260503224502 24 137 4.8 16.1 0.00 0.00 0.00 42 1011.8
20260503224001 24 82 3.2 16.1 0.00 0.00 0.00 42 1011.9
20260503223501 24 178 1.6 14.5 0.00 0.00 0.00 43 1011.8
20260503223002 24 227 3.2 14.5 0.00 0.00 0.00 43 1011.8
20260503222502 24 193 4.8 14.5 0.00 0.00 0.00 42 1011.9
20260503222001 24 171 4.8 20.9 0.00 0.00 0.00 42 1011.9
20260503221502 24 178 6.4 20.9 0.00 0.00 0.00 42 1011.9
20260503221001 24 178 6.4 20.9 0.00 0.00 0.00 41 1012.0
20260503220003 24 201 3.2 16.1 0.00 0.00 0.00 43 1012.0
20260503215502 24 139 6.4 25.7 0.00 0.00 0.00 43 1012.1
20260503215002 24 223 6.4 25.7 0.00 0.00 0.00 41 1012.0
20260503214502 24 134 4.8 24.1 0.00 0.00 0.00 42 1012.0
20260503214001 24 139 4.8 24.1 0.00 0.00 0.00 43 1012.1
20260503213501 24 176 4.8 16.1 0.00 0.00 0.00 43 1012.1
20260503213002 24 163 4.8 16.1 0.00 0.00 0.00 42 1012.1
20260503212501 24 146 6.4 24.1 0.00 0.00 0.00 43 1012.2
20260503212001 24 194 6.4 24.1 0.00 0.00 0.00 43 1012.4
20260503211501 24 261 6.4 19.3 0.00 0.00 0.00 43 1012.4
20260503211001 24 116 8.0 19.3 0.00 0.00 0.00 43 1012.5
20260503210501 24 195 8.0 25.7 0.00 0.00 0.00 42 1012.4
20260503210004 24 129 8.0 25.7 0.00 0.00 0.00 43 1012.6